Regional Weather Roundup
Issued by NWS

Home | Current Version | Previous Version | Text Only | Print | Product List | Glossary Off
Versions: 1 2 3 4 5 6 7 8 9 10 11 12 13 14 15 16 17 18 19 20 21 22 23 24 25 26 27 28 29 30 31 32 33 34 35 36 37 38 39 40 41 42 43 44 45 46 47 48 49 50

000
ASUS43 KBIS 101510
RWRND
NORTH DAKOTA REGIONAL WEATHER ROUNDUP
NATIONAL WEATHER SERVICE EASTERN NORTH DAKOTA/GRAND FORKS ND
900 AM CST WED FEB 10 2016

  NOTE: "FAIR" INDICATES FEW OR NO CLOUDS BELOW 12,000 FEET WITH NO
  SIGNIFICANT WEATHER AND/OR OBSTRUCTIONS TO VISIBILITY.

NDZ001>003-009>011-017-101600-
...NORTHWEST NORTH DAKOTA...

CITY           SKY/WX    TMP DP  RH WIND       PRES   REMARKS
WILLISTON      CLOUDY    31  26  82 N14       29.91R WCI  21
MINOT          CLOUDY    17   9  70 E12       29.92R WCI   4
MINOT AFB      CLOUDY    14  10  85 E10       29.93R WCI   1
$$

NDZ018>021-031>035-040>046-101600-
...SOUTHWEST NORTH DAKOTA...

CITY           SKY/WX    TMP DP  RH WIND       PRES   REMARKS
BISMARCK       CLOUDY    22  17  81 E7        29.89R WCI  13
DICKINSON      CLEAR     33  26  75 NW13      29.83R WCI  24
GARRISON         N/A     19  15  84 E14       29.88R WCI   6
HETTINGER      CLEAR     32  26  78 W8        29.86R WCI  25
$$

NDZ004>008-012>016-024-026-027-054-101600-
...NORTHEAST NORTH DAKOTA...

CITY           SKY/WX    TMP DP  RH WIND       PRES   REMARKS
GRAND FORKS    FLURRIES   6  -1  73 E9        30.12R WCI  -8
GRAND FORKS AF CLOUDY     5  -1  76 E8        30.11R WCI  -9
DEVILS LAKE    NOT AVBL
$$

NDZ022-023-025-028>030-036>039-047>053-101600-
...SOUTHEAST NORTH DAKOTA...

CITY           SKY/WX    TMP DP  RH WIND       PRES   REMARKS
JAMESTOWN      LGT SNOW   7   2  80 SE12      29.98S WCI  -8
FARGO          LGT SNOW   8   2  76 E9        30.09F WCI  -5
WAHPETON       CLOUDY     9   3  78 SE7       30.09S WCI  -3
$$



USA.gov is the U.S. government's official web portal to all federal, state and local government web resources and services.